Regional Weather Roundup
Issued by NWS

Home | Current Version | Previous Version | Graphics & Text | Print | Product List | Glossary On
Versions: 1 2 3 4 5 6 7 8 9 10 11 12 13 14 15 16 17 18 19 20 21 22 23 24 25 26 27 28 29 30 31 32 33 34 35 36 37 38 39 40 41 42 43 44 45 46 47 48 49 50
000
ASUS43 KFSD 212110
RWRSD

WEATHER ROUNDUP FOR SOUTH DAKOTA
NATIONAL WEATHER SERVICE SIOUX FALLS SD
400 PM CDT FRI JUL 21 2017

NOTE: "FAIR" INDICATES FEW OR NO CLOUDS BELOW 12,000 FEET WITH NO
SIGNIFICANT WEATHER AND/OR OBSTRUCTIONS TO VISIBILITY.


SDZ001>005-009-010-012>017-212200-
NORTHWEST AND NORTH CENTRAL SOUTH DAKOTA

CITY           SKY/WX    TMP DP  RH WIND       PRES   REMARKS
BUFFALO          N/A     92  52  25 NW22G31   29.84R
FAITH            N/A     94  62  34 N8        29.83S
MOBRIDGE       CLOUDY    93  75  55 VRB3      29.75F HX 104
$$

SDZ012>016-024>037-041>051-057-063-072>074-212200-
SOUTHWEST AND SOUTH CENTRAL SOUTH DAKOTA

CITY           SKY/WX    TMP DP  RH WIND       PRES   REMARKS
RAPID CTY ARPT SUNNY     94  49  21 NW18G29   29.91R
PIERRE         MOSUNNY   96  64  34 VRB6      29.76F HX  98
CUSTER         CLOUDY    88  28  11 NW12G21   30.10S
PHILIP         CLOUDY    98  61  29 NW14G23   29.80F HX  98
PINE RIDGE     SUNNY     95  56  26 NW10      29.91F
SPEARFISH      FAIR      90  46  22 N18G28    29.99F
WINNER         FAIR      99  68  36 VRB7      29.79F HX 104
$$

SDZ004>011-016>023-039-040-212200-
NORTHEAST SOUTH DAKOTA

CITY           SKY/WX    TMP DP  RH WIND       PRES   REMARKS
ABERDEEN       MOSUNNY   89  74  60 S5        29.77F HX  98
WATERTOWN      SUNNY     87  71  58 S7        29.80F
BROOKINGS      MOSUNNY   85  71  63 S10       29.83F
SISSETON         N/A     88  76  67 SE15      29.75F HX  99
$$

SDZ017-020-022-023-036>040-048>070-212200-
SOUTHEAST SOUTH DAKOTA

CITY           SKY/WX    TMP DP  RH WIND       PRES   REMARKS
SIOUX FALLS    PTSUNNY   84  73  69 SE10      29.83S
HURON          PTSUNNY   89  71  55 SE13      29.77F HX  95
CHAMBERLAIN    MOSUNNY   95  72  47 E6        29.77F HX 103
MITCHELL       SUNNY     89  72  56 SE10      29.79S HX  96
YANKTON        SUNNY     89  76  65 E8        29.78F HX 100
$$

ABBREVIATIONS USED IN REMARKS
   TC - TEMPERATURE IN CELSIUS
  WCI - WIND CHILL INDEX
   HX - HEAT INDEX
  VSB - VISIBILITY





USA.gov is the U.S. government's official web portal to all federal, state and local government web resources and services.